Regional Weather Roundup
Issued by NWS

Home | Current Version | Previous Version | Graphics & Text | Print | Product List | Glossary On
Versions: 1 2 3 4 5 6 7 8 9 10 11 12 13 14 15 16 17 18 19 20 21 22 23 24 25 26 27 28 29 30 31 32 33 34 35 36 37 38 39 40 41 42 43 44 45 46 47 48 49 50
000
ASUS43 KIND 231259
RWRIN

WEATHER ROUNDUP FOR INDIANA
NATIONAL WEATHER SERVICE INDIANAPOLIS IN
900 AM EDT WED JUL 23 2014

NOTE: "FAIR" INDICATES FEW OR NO CLOUDS BELOW 12,000 FEET WITH NO
SIGNIFICANT WEATHER AND/OR OBSTRUCTIONS TO VISIBILITY.

* - STATION DOES NOT REPORT WEATHER SUCH AS PRECIPITATION OR FOG.

+ - STATION NOT QUALITY CONTROLLED BY THE NATIONAL WEATHER SERVICE.
    USE DATA WITH CAUTION...ESPECIALLY DEWPOINT AND RELATIVE
    HUMIDITY OBSERVATIONS.

INZ001>003-010>013-019-020-231400-
NORTHWEST INDIANA

CITY           SKY/WX    TMP DP  RH WIND       PRES   REMARKS
GARY /AIRPORT/ PTSUNNY   66  59  77 N14G28    30.12R
KNOX *+        MOSUNNY   66  60  82 N10G18    30.08R
MONTICELLO +   CLOUDY    67  66  97 N6        30.07R FOG
VALPARAISO     CLOUDY    65  60  84 N9G20     30.10R

$$

LMZ046-743>745-231400-
SOUTHERN LAKE MICHIGAN

STATION/POSITION TIME  TEMP WIND        PRES
                       AIR  DIR/SP/G
                 (UTC) (F)  (DEG/KT/KT) (MB)
MICHIGAN CITY    1200   65  360/ 25/ 29   N/A

$$

INZ004-005-014>016-021>024-231400-
NORTH CENTRAL INDIANA

CITY           SKY/WX    TMP DP  RH WIND       PRES   REMARKS
ELKHART        CLOUDY    63  59  88 N9        30.07
GOSHEN         CLOUDY    66  64  93 N15       30.05R
SOUTH BEND     PTSUNNY   65  58  78 N14       30.08R
WARSAW +       CLOUDY    68  68 100 N6        30.05R FOG

$$

INZ006>009-017-018-025>027-231400-
NORTHEAST INDIANA

CITY           SKY/WX    TMP DP  RH WIND       PRES   REMARKS
ANGOLA *+      CLOUDY    70  61  73 N6        30.02S
FORT WAYNE     CLOUDY    70  67  90 SW6       30.04R

$$

INZ028-029-035-036-043>045-051>053-231400-
WEST CENTRAL INDIANA

CITY           SKY/WX    TMP DP  RH WIND       PRES   REMARKS
GREENCASTLE +  CLOUDY    72  68  88 S3        30.04F FOG
LAFAYETTE      CLOUDY    69  67  93 N12       30.05R FOG
TERRE HAUTE    CLOUDY    74  70  87 SW3       30.03S

$$

INZ030>032-037>040-046>048-054>057-064-065-231400-
CENTRAL INDIANA

CITY           SKY/WX    TMP DP  RH WIND       PRES   REMARKS
ANDERSON       MOSUNNY   70  68  94 CALM      30.06
COLUMBUS       MOSUNNY   73  72  94 S8        30.05R
INDIANAPOLIS   PTSUNNY   74  67  78 CALM      30.00R
-EAGLE CREEK   CLOUDY    73  68  84 E3        30.00S
KOKOMO *+      CLOUDY    70  68  94 NW7       30.06R
MT COMFORT *+  PTSUNNY   70 N/A N/A NE6       30.04R
SHELBYVILLE    PTSUNNY   74  69  85 S6        30.01F

$$

INZ033-034-041-042-049-050-058-059-231400-
EAST CENTRAL INDIANA

CITY           SKY/WX    TMP DP  RH WIND       PRES   REMARKS
MUNCIE         CLOUDY    71  66  84 NW7       30.06R

$$

INZ060-061-067>069-081>083-085>088-231400-
SOUTHWEST INDIANA

CITY           SKY/WX    TMP DP  RH WIND       PRES   REMARKS
EVANSVILLE     CLOUDY    75  64  68 W9G18     30.07F
HUNTINGBURG *+ CLOUDY    73  68  83 SW10      30.05F

$$

INZ062-063-066-070>080-084-089>092-231400-
SOUTH CENTRAL AND SOUTHEAST INDIANA

CITY           SKY/WX    TMP DP  RH WIND       PRES   REMARKS
BLOOMINGTON    TSTM      71  69  93 SW21G30   30.08R VSB 1/4

$$



USA.gov is the U.S. government's official web portal to all federal, state and local government web resources and services.